International Falls, MN

10:20 PM CDT on July 25, 2017 (GMT -0500)
Falls International

Weather History for KINL - August, 2013

Change the Weather History Date:

Monday, August 12, 2013

  Actual Average Record
Temperature  
Mean Temperature 57 °F 64 °F  
Max Temperature 70 °F 77 °F 93 °F (1991)
Min Temperature 43 °F 52 °F 36 °F (1906)
Degree Days  
Heating Degree Days 8 3  
Month to date heating degree days 92 30  
Since 1 June heating degree days 346 264  
Since 1 July heating degree days 177 100  
Cooling Degree Days 0 2  
Month to date cooling degree days 0 24  
Year to date cooling degree days 127 147  
Since 1 June cooling degree days 124 138  
Growing Degree Days 8 (Base 50)    
Moisture  
Dew Point 49 °F    
Average Humidity 69    
Maximum Humidity 100    
Minimum Humidity 37    
Precipitation  
Precipitation 0.00 in 0.10 in 1.80 in (1919)
Month to date precipitation 1.04 1.11  
Year to date precipitation 22.42 15.26  
Snow  
Snow 0.00 in 0.00 in 0.00 in (2002)
Month to date snowfall 0.0 0.0  
Since 1 June snowfall 0.0 0.0  
Since 1 July snowfall 0.0 0.0  
Snow Depth 0.00 in    
Sea Level Pressure  
Sea Level Pressure 30.06 in    
Wind  
Wind Speed 4 mph (NNE)    
Max Wind Speed 12 mph    
Max Gust Speed 15 mph    
Visibility 10 miles    
Events      
T = Trace of Precipitation, MM = Missing Value Source: NWS Daily Summary

Daily Weather History Graph

Daily Weather History Graph

Search for Another Location

Airport or City:

Trip Planner

Search our weather history database for the weather conditions in past years. The results will help you decide how hot, cold, wet, or windy it might be!

Date:

Astronomy

Aug. 12, 2013 Rise Set
Actual Time 6:03 AM CDT 8:32 PM CDT
Civil Twilight 5:28 AM CDT 9:07 PM CDT
Nautical Twilight 4:43 AM CDT 9:51 PM CDT
Astronomical Twilight 3:52 AM CDT 10:42 PM CDT
Moon 12:29 PM CDT (8/12) 10:50 PM CDT (8/12)
Length of Visible Light 15h 39m
Length of Day
14h 29m
Waxing Crescent, 31% of the Moon is Illuminated
Aug 12
Waxing Crescent
Aug 14
First Quarter
Aug 20
Full
Aug 28
Last Quarter
Sep 5
New

Hourly Weather History & Observations

Time (CDT) Temp. Dew Point Humidity Pressure Visibility Wind Dir Wind Speed Gust Speed Precip Events Conditions
12:55 AM 48.9 °F 48.0 °F 97% 30.02 in 10.0 mi Calm Calm - N/A   Clear
1:55 AM 48.9 °F 48.0 °F 97% 30.01 in 10.0 mi Calm Calm - N/A   Scattered Clouds
2:55 AM 52.0 °F 51.1 °F 97% 30.02 in 10.0 mi Calm Calm - N/A   Mostly Cloudy
3:55 AM 50.0 °F 48.9 °F 96% 30.01 in 10.0 mi Calm Calm - N/A   Mostly Cloudy
4:55 AM 52.0 °F 51.1 °F 97% 30.01 in 10.0 mi West 3.5 mph - N/A   Scattered Clouds
5:55 AM 51.1 °F 50.0 °F 96% 30.01 in 10.0 mi WNW 5.8 mph - N/A   Clear
6:55 AM 52.0 °F 51.1 °F 97% 30.01 in 10.0 mi Calm Calm - N/A   Mostly Cloudy
7:55 AM 55.9 °F 55.0 °F 97% 30.02 in 10.0 mi Calm Calm - N/A   Scattered Clouds
8:55 AM 61.0 °F 55.0 °F 81% 30.04 in 10.0 mi NNE 10.4 mph - N/A   Partly Cloudy
9:16 AM 60.8 °F 53.6 °F 77% 30.04 in 10.0 mi NNE 8.1 mph - N/A   Mostly Cloudy
9:55 AM 63.0 °F 53.1 °F 70% 30.06 in 10.0 mi North 11.5 mph - N/A   Mostly Cloudy
10:55 AM 64.9 °F 52.0 °F 63% 30.07 in 10.0 mi NNE 10.4 mph - N/A   Overcast
11:27 AM 64.4 °F 50.0 °F 59% 30.06 in 10.0 mi NNE 10.4 mph - N/A   Scattered Clouds
11:55 AM 66.0 °F 48.0 °F 52% 30.09 in 10.0 mi NNE 8.1 mph 17.3 mph N/A   Partly Cloudy
12:55 PM 66.9 °F 45.0 °F 45% 30.10 in 10.0 mi NNE 9.2 mph - N/A   Scattered Clouds
1:55 PM 66.0 °F 44.1 °F 45% 30.10 in 10.0 mi ENE 6.9 mph - N/A   Scattered Clouds
2:55 PM 70.0 °F 45.0 °F 41% 30.10 in 10.0 mi Variable 6.9 mph - N/A   Mostly Cloudy
3:55 PM 69.1 °F 42.1 °F 38% 30.09 in 10.0 mi North 10.4 mph - N/A   Mostly Cloudy
4:55 PM 68.0 °F 45.0 °F 43% 30.10 in 10.0 mi NNE 5.8 mph - N/A   Mostly Cloudy
5:55 PM 66.0 °F 45.0 °F 47% 30.10 in 10.0 mi NE 5.8 mph - N/A   Unknown
6:55 PM 66.9 °F 45.0 °F 45% 30.10 in 10.0 mi NNE 4.6 mph - N/A   Scattered Clouds
7:55 PM 63.0 °F 46.0 °F 54% 30.10 in 10.0 mi Calm Calm - N/A   Partly Cloudy
8:55 PM 50.0 °F 46.9 °F 89% 30.11 in 10.0 mi Calm Calm - N/A   Clear
9:55 PM 48.9 °F 46.9 °F 93% 30.13 in 10.0 mi Calm Calm - N/A   Overcast
10:55 PM 48.0 °F 46.0 °F 93% 30.13 in 10.0 mi Calm Calm - N/A   Mostly Cloudy